カタログに戻る

COSMOS 2499 DEB

運用中PO
NORAD 49924·DEBRIS·🇷🇺 Russia

打ち上げ May 23, 2014 から Plesetsk Cosmodrome

Loading…

次のパス (今後24時間)

TLE

最新Source: Space-Track

元期: Sep 12, 2026, 02:21 UTC

1 49924U 14028F   26255.09817398  .00003508  00000-0  10268-1 0  9992
2 49924  82.4978 181.9639 0267480  59.8578 302.8749 12.97111373229555

AllMySatでCOSMOS 2499 DEBをリアルタイム追跡

Download on the App Store